Home > Weather > Melhus > Past weeks

Flag for Norway Past Weather in Melhus, Norway — Yesterday and Last 2 Weeks

Now
61 °F

Passing clouds.


Feels Like: 61 °F
Forecast: 47 / 68 °F
Wind: 7 mph from West

Location: Trondheim / Vaernes

Current Time: Aug 25, 2016 at 5:11:20 PM

Latest Report: Aug 25, 2016 at 4:20 PM


Visibility: N/A

Pressure: 30.12 "Hg

Humidity: 63%

Dew Point: 48 °F

Location of MelhusLocation

Past Weather in Melhus — Graph

°F

Melhus Temperature Yesterday

Maximum temperature yesterday: 61 °F (at 7:20 PM)
Minimum temperature yesterday: 48 °F (at 12:50 AM)
Average temperature yesterday: 55 °F

High & Low Weather Summary for the Past Weeks

 TemperatureHumidityPressure
High77 °F (Aug 18, 4:50 PM)100% (Aug 12, 5:20 AM)30.27 "Hg (Aug 12, 5:20 AM)
Low41 °F (Aug 12, 5:20 AM)32% (Aug 18, 5:50 PM)29.50 "Hg (Aug 12, 9:50 PM)
Average57 °F75%29.98 "Hg
* Reported Aug 10 3:20 PM — Aug 25 3:50 PM, Melhus, Weather by CustomWeather, © 2016

Note: Actual official high and low records may vary slightly from our data, if they occured in-between our weather recording intervals... More about our weather records

Advertising

Melhus Weather History for the Previous 24 Hours

Scroll right to see more
 ConditionsComfort  
Time TempWeatherWind HumidityBarometerVisibility
3:50 PM
Thu, Aug 25
61 °FScattered clouds.8 mph68%30.12 "HgN/A
3:20 PM61 °FScattered clouds.9 mph68%30.12 "HgN/A
2:50 PM61 °FScattered clouds.7 mph68%30.12 "HgN/A
2:20 PM61 °FPartly sunny.6 mph68%30.12 "HgN/A
1:50 PM59 °FScattered clouds.5 mph72%30.12 "HgN/A
1:20 PM61 °FScattered clouds.9 mph68%30.12 "HgN/A
12:50 PM61 °FScattered clouds.10 mph63%30.12 "HgN/A
12:20 PM61 °FScattered clouds.14 mph63%30.12 "HgN/A
11:50 AM61 °FScattered clouds.18 mph63%30.12 "HgN/A
11:20 AM61 °FScattered clouds.18 mph68%30.12 "HgN/A
10:50 AM59 °FScattered clouds.17 mph72%30.12 "HgN/A
10:20 AM59 °FScattered clouds.17 mph72%30.12 "HgN/A
9:50 AM59 °FScattered clouds.15 mph77%30.12 "HgN/A
9:20 AM59 °FScattered clouds.13 mph72%30.12 "HgN/A
8:50 AM59 °FScattered clouds.8 mph72%30.12 "HgN/A
8:20 AM59 °FScattered clouds.7 mph72%30.12 "HgN/A
7:50 AM57 °FPassing clouds.10 mph77%30.09 "HgN/A
7:20 AM57 °FScattered clouds.14 mph77%30.12 "HgN/A
6:50 AM57 °FPartly sunny.14 mph77%30.09 "HgN/A
6:20 AM55 °FPartly cloudy.6 mph88%30.09 "HgN/A
5:50 AM57 °FPartly cloudy.15 mph77%30.09 "HgN/A
5:20 AM57 °FPartly cloudy.17 mph77%30.09 "HgN/A
4:50 AM57 °FScattered showers. Passing clouds.15 mph82%30.09 "HgN/A
3:50 AM57 °FPassing clouds.20 mph82%30.09 "HgN/A
2:50 AM54 °FScattered showers. Partly cloudy.6 mph100%30.07 "HgN/A
2:20 AM54 °FLight rain. Partly cloudy.2 mph100%30.07 "HgN/A
1:50 AM54 °FScattered showers. Partly cloudy.5 mph100%30.07 "HgN/A
1:20 AM55 °FSprinkles. Partly cloudy.5 mph94%30.07 "HgN/A
12:50 AM54 °FSprinkles. Partly cloudy.3 mph100%30.04 "HgN/A
12:20 AM54 °FScattered showers. Partly cloudy.7 mph100%30.04 "HgN/A
11:50 PM
Wed, Aug 24
54 °FScattered showers. Partly cloudy.5 mph100%30.04 "HgN/A
11:20 PM55 °FScattered showers. Partly cloudy.2 mph94%30.04 "HgN/A
10:50 PM55 °FScattered showers. Partly cloudy.2 mph94%30.04 "HgN/A
10:20 PM57 °FSprinkles. Partly cloudy.2 mph88%30.01 "HgN/A
9:50 PM57 °FScattered showers. Partly sunny.1 mph88%30.01 "HgN/A
9:20 PM57 °FBroken clouds.3 mph88%30.01 "HgN/A
8:50 PM57 °FBroken clouds.8 mph88%30.01 "HgN/A
8:20 PM59 °FBroken clouds.8 mph82%30.01 "HgN/A
7:50 PM59 °FBroken clouds.5 mph82%30.01 "HgN/A
7:20 PM61 °FBroken clouds.5 mph83%30.01 "HgN/A
6:50 PM59 °FBroken clouds.3 mph88%30.01 "HgN/A
6:20 PM57 °FBroken clouds.1 mph88%30.01 "HgN/A
5:50 PM57 °FDrizzle. Broken clouds.1 mph88%30.04 "HgN/A
5:20 PM57 °FDrizzle. Broken clouds.2 mph88%30.04 "HgN/A
Weather by CustomWeather, © 2016

See weather overviewHow to use our weather pages